Total_Precipitation_Accumulation
0.05 0.04 0.04 0.05 0.03 0.02 0.00 0.00 0.00 0.00 0.00 0.00 0.00 0.00 0.00 0.00 0.00 0.01 0.02 0.02 0.03 0.06 0.10 0.23 0.33 0.36 0.39 0.43 0.41 0.38 0.35 0.33 0.36 0.43 0.50 0.50 0.48 0.47 0.49 0.50 0.51 0.55 0.59 0.60 0.56 0.55 0.55 0.47 0.43
0.05 0.05 0.07 0.10 0.05 0.01 0.00 0.00 0.00 0.00 0.00 0.00 0.00 0.00 0.00 0.00 0.00 0.01 0.03 0.02 0.02 0.03 0.07 0.15 0.26 0.34 0.40 0.42 0.43 0.39 0.36 0.36 0.38 0.42 0.48 0.52 0.49 0.45 0.45 0.48 0.51 0.58 0.60 0.62 0.59 0.56 0.57 0.48 0.41
0.08 0.08 0.10 0.09 0.04 0.01 0.00 0.00 0.00 0.00 0.00 0.00 0.00 0.00 0.00 0.00 0.00 0.01 0.02 0.01 0.01 0.03 0.06 0.14 0.25 0.33 0.41 0.45 0.45 0.43 0.41 0.42 0.44 0.45 0.48 0.51 0.55 0.50 0.46 0.43 0.47 0.57 0.59 0.60 0.62 0.59 0.58 0.52 0.45
0.13 0.17 0.15 0.08 0.02 0.00 0.00 0.00 0.00 0.00 0.00 0.00 0.00 0.00 0.00 0.00 0.00 0.01 0.01 0.01 0.02 0.03 0.06 0.14 0.27 0.37 0.43 0.46 0.49 0.46 0.46 0.47 0.47 0.48 0.53 0.54 0.56 0.54 0.53 0.50 0.46 0.46 0.51 0.57 0.61 0.61 0.63 0.58 0.49
0.17 0.21 0.17 0.08 0.02 0.00 0.00 0.00 0.00 0.00 0.00 0.00 0.00 0.00 0.00 0.00 0.01 0.01 0.01 0.02 0.02 0.04 0.07 0.16 0.30 0.41 0.46 0.49 0.53 0.52 0.52 0.54 0.52 0.52 0.54 0.57 0.59 0.62 0.60 0.55 0.48 0.42 0.42 0.46 0.53 0.55 0.57 0.58 0.52
0.24 0.22 0.14 0.06 0.03 0.01 0.00 0.00 0.00 0.00 0.00 0.00 0.00 0.00 0.00 0.01 0.01 0.02 0.02 0.03 0.03 0.05 0.09 0.18 0.33 0.44 0.50 0.55 0.60 0.58 0.59 0.64 0.64 0.63 0.61 0.60 0.61 0.62 0.60 0.57 0.52 0.47 0.45 0.47 0.49 0.51 0.55 0.58 0.56
0.22 0.19 0.10 0.04 0.03 0.01 0.00 0.00 0.01 0.01 0.00 0.00 0.00 0.00 0.01 0.02 0.02 0.02 0.04 0.04 0.06 0.07 0.11 0.19 0.31 0.43 0.53 0.61 0.64 0.65 0.64 0.67 0.67 0.67 0.66 0.64 0.64 0.67 0.69 0.64 0.57 0.53 0.52 0.51 0.48 0.46 0.46 0.48 0.53
0.19 0.21 0.12 0.05 0.03 0.02 0.01 0.01 0.01 0.01 0.01 0.00 0.01 0.01 0.01 0.02 0.02 0.03 0.04 0.06 0.09 0.12 0.15 0.22 0.34 0.42 0.50 0.58 0.65 0.66 0.64 0.69 0.71 0.72 0.70 0.67 0.69 0.72 0.74 0.67 0.59 0.55 0.53 0.50 0.46 0.44 0.40 0.38 0.39
0.28 0.29 0.13 0.05 0.03 0.03 0.02 0.02 0.02 0.02 0.03 0.02 0.01 0.01 0.01 0.02 0.03 0.05 0.08 0.11 0.13 0.17 0.19 0.26 0.40 0.48 0.53 0.56 0.57 0.67 0.72 0.76 0.76 0.77 0.73 0.71 0.65 0.61 0.59 0.56 0.58 0.58 0.56 0.52 0.49 0.47 0.43 0.38 0.31
0.35 0.27 0.11 0.04 0.03 0.04 0.04 0.04 0.05 0.05 0.04 0.04 0.03 0.02 0.03 0.04 0.05 0.06 0.08 0.11 0.14 0.16 0.19 0.27 0.40 0.48 0.57 0.58 0.62 0.73 0.75 0.74 0.75 0.71 0.73 0.70 0.62 0.58 0.53 0.51 0.51 0.55 0.58 0.58 0.57 0.52 0.46 0.38 0.29
0.30 0.21 0.09 0.06 0.05 0.05 0.05 0.05 0.06 0.07 0.06 0.05 0.04 0.04 0.05 0.06 0.08 0.09 0.08 0.10 0.13 0.18 0.23 0.29 0.40 0.50 0.59 0.62 0.64 0.69 0.72 0.73 0.76 0.77 0.75 0.76 0.74 0.71 0.69 0.64 0.62 0.56 0.52 0.53 0.54 0.55 0.47 0.42 0.37
0.21 0.14 0.10 0.09 0.08 0.08 0.08 0.06 0.06 0.06 0.05 0.05 0.05 0.05 0.07 0.08 0.09 0.10 0.11 0.11 0.15 0.22 0.28 0.33 0.42 0.52 0.59 0.66 0.70 0.68 0.69 0.70 0.71 0.75 0.78 0.77 0.75 0.72 0.72 0.68 0.63 0.59 0.56 0.55 0.54 0.52 0.46 0.41 0.36
0.17 0.12 0.09 0.10 0.12 0.11 0.10 0.07 0.06 0.05 0.03 0.03 0.04 0.05 0.06 0.09 0.11 0.13 0.15 0.15 0.19 0.25 0.31 0.36 0.45 0.52 0.58 0.67 0.73 0.76 0.72 0.67 0.65 0.69 0.73 0.74 0.73 0.70 0.66 0.63 0.59 0.55 0.53 0.50 0.46 0.41 0.36 0.33 0.33
0.15 0.12 0.10 0.10 0.13 0.12 0.11 0.08 0.06 0.03 0.02 0.03 0.03 0.04 0.05 0.08 0.11 0.13 0.17 0.20 0.21 0.23 0.29 0.36 0.46 0.55 0.62 0.66 0.69 0.72 0.74 0.71 0.68 0.66 0.62 0.65 0.67 0.67 0.68 0.66 0.64 0.58 0.52 0.50 0.48 0.43 0.38 0.32 0.30
0.16 0.18 0.15 0.11 0.11 0.13 0.15 0.12 0.04 0.01 0.02 0.04 0.04 0.04 0.05 0.07 0.10 0.11 0.14 0.18 0.20 0.23 0.31 0.41 0.50 0.62 0.70 0.71 0.72 0.72 0.74 0.77 0.74 0.70 0.67 0.64 0.61 0.62 0.67 0.69 0.66 0.62 0.56 0.52 0.51 0.50 0.48 0.43 0.36
0.24 0.29 0.22 0.12 0.09 0.11 0.22 0.18 0.03 0.01 0.02 0.04 0.06 0.05 0.05 0.06 0.08 0.09 0.12 0.16 0.20 0.27 0.33 0.44 0.53 0.63 0.72 0.77 0.79 0.76 0.75 0.79 0.80 0.76 0.75 0.71 0.67 0.66 0.69 0.73 0.70 0.65 0.62 0.59 0.55 0.52 0.50 0.47 0.42
0.38 0.32 0.19 0.11 0.09 0.13 0.22 0.16 0.04 0.01 0.02 0.03 0.04 0.05 0.05 0.05 0.08 0.10 0.12 0.14 0.19 0.26 0.32 0.44 0.55 0.58 0.65 0.78 0.85 0.84 0.83 0.83 0.84 0.83 0.79 0.76 0.71 0.69 0.72 0.75 0.75 0.74 0.73 0.68 0.64 0.58 0.51 0.46 0.43
0.32 0.23 0.14 0.12 0.12 0.16 0.17 0.10 0.03 0.02 0.04 0.03 0.03 0.04 0.06 0.05 0.05 0.07 0.13 0.16 0.20 0.27 0.33 0.42 0.57 0.60 0.64 0.77 0.93 0.94 0.92 0.92 0.90 0.84 0.78 0.77 0.76 0.72 0.69 0.72 0.75 0.78 0.77 0.71 0.66 0.63 0.55 0.48 0.45
0.18 0.21 0.19 0.12 0.11 0.20 0.18 0.10 0.04 0.02 0.04 0.04 0.04 0.03 0.04 0.05 0.04 0.06 0.12 0.18 0.22 0.26 0.31 0.41 0.57 0.62 0.70 0.78 0.86 0.92 0.86 0.87 0.88 0.83 0.80 0.76 0.78 0.80 0.76 0.73 0.73 0.76 0.77 0.69 0.62 0.61 0.61 0.58 0.55
0.23 0.26 0.20 0.14 0.13 0.21 0.20 0.10 0.04 0.03 0.03 0.03 0.03 0.04 0.04 0.05 0.05 0.07 0.11 0.14 0.20 0.24 0.26 0.33 0.49 0.61 0.66 0.70 0.72 0.76 0.79 0.81 0.84 0.81 0.83 0.83 0.80 0.85 0.82 0.75 0.74 0.75 0.74 0.71 0.64 0.61 0.62 0.60 0.61
0.23 0.21 0.17 0.17 0.17 0.22 0.22 0.14 0.04 0.02 0.02 0.03 0.04 0.05 0.05 0.04 0.04 0.06 0.07 0.09 0.15 0.21 0.23 0.28 0.41 0.55 0.63 0.69 0.82 0.87 0.93 1.01 1.00 0.92 0.85 0.82 0.84 0.84 0.88 0.82 0.75 0.75 0.76 0.73 0.66 0.60 0.59 0.60 0.56
0.24 0.12 0.13 0.18 0.31 0.32 0.24 0.25 0.07 0.03 0.04 0.04 0.05 0.05 0.05 0.04 0.04 0.05 0.06 0.07 0.12 0.17 0.21 0.27 0.40 0.54 0.62 0.70 0.81 0.86 0.86 0.90 0.91 0.84 0.80 0.76 0.78 0.83 0.82 0.85 0.83 0.78 0.76 0.73 0.69 0.64 0.60 0.63 0.63
0.21 0.10 0.14 0.21 0.33 0.40 0.26 0.31 0.11 0.05 0.06 0.07 0.08 0.08 0.07 0.06 0.05 0.05 0.05 0.07 0.11 0.17 0.22 0.26 0.37 0.54 0.65 0.73 0.75 0.79 0.79 0.75 0.80 0.89 0.89 0.85 0.82 0.82 0.82 0.81 0.84 0.83 0.77 0.73 0.72 0.73 0.71 0.70 0.69
0.26 0.25 0.29 0.34 0.57 0.73 0.26 0.24 0.13 0.10 0.11 0.10 0.09 0.09 0.09 0.08 0.06 0.05 0.06 0.07 0.10 0.19 0.26 0.33 0.37 0.48 0.65 0.77 0.78 0.77 0.76 0.75 0.80 0.89 0.94 0.95 0.91 0.85 0.81 0.80 0.79 0.80 0.78 0.71 0.68 0.71 0.75 0.75 0.71
0.52 0.74 1.15 1.17 1.12 0.62 0.10 0.16 0.16 0.09 0.08 0.09 0.10 0.09 0.08 0.09 0.09 0.08 0.08 0.10 0.11 0.17 0.26 0.34 0.39 0.43 0.54 0.73 0.81 0.77 0.76 0.74 0.74 0.80 0.86 0.90 0.94 0.92 0.84 0.80 0.77 0.76 0.76 0.75 0.72 0.73 0.72 0.73 0.76
0.60 0.76 0.99 0.86 0.49 0.16 0.05 0.10 0.12 0.06 0.05 0.05 0.07 0.08 0.06 0.06 0.08 0.09 0.10 0.13 0.14 0.16 0.24 0.34 0.43 0.46 0.51 0.63 0.75 0.79 0.82 0.80 0.75 0.75 0.81 0.84 0.85 0.85 0.86 0.86 0.81 0.73 0.71 0.74 0.79 0.78 0.75 0.75 0.77
0.46 0.57 0.51 0.64 0.42 0.23 0.12 0.08 0.08 0.04 0.04 0.03 0.03 0.06 0.09 0.09 0.09 0.11 0.13 0.15 0.15 0.18 0.24 0.30 0.39 0.51 0.54 0.56 0.70 0.80 0.85 0.86 0.78 0.74 0.77 0.82 0.83 0.86 0.92 0.92 0.91 0.85 0.79 0.75 0.77 0.79 0.78 0.82 0.81
0.37 0.41 0.62 1.00 0.84 0.37 0.13 0.08 0.11 0.08 0.05 0.04 0.03 0.04 0.07 0.09 0.09 0.12 0.15 0.16 0.15 0.17 0.22 0.28 0.32 0.45 0.59 0.59 0.64 0.79 0.85 0.89 0.88 0.82 0.78 0.77 0.77 0.84 0.96 0.99 0.94 0.94 0.91 0.86 0.81 0.79 0.77 0.83 0.85
0.43 0.56 0.76 0.91 0.75 0.49 0.24 0.15 0.15 0.09 0.06 0.07 0.06 0.05 0.06 0.08 0.09 0.11 0.16 0.18 0.17 0.17 0.22 0.30 0.33 0.42 0.56 0.66 0.65 0.71 0.82 0.87 0.93 0.92 0.84 0.78 0.77 0.78 0.87 0.98 1.00 0.99 0.99 0.95 0.93 0.89 0.88 0.88 0.88
0.40 0.49 0.62 0.87 0.71 0.43 0.33 0.18 0.11 0.08 0.06 0.07 0.07 0.05 0.05 0.07 0.09 0.12 0.20 0.21 0.20 0.20 0.23 0.31 0.31 0.35 0.46 0.62 0.72 0.70 0.75 0.87 0.90 0.84 0.81 0.84 0.81 0.80 0.83 0.92 1.05 1.08 1.06 1.02 1.01 0.99 1.03 1.09 1.05